Cambridge, MD

1:14 PM EDT on June 25, 2017 (GMT -0400)
Cambridge-Dorchester

Weather History for KCGE - April, 2014

Change the Weather History Date:

Saturday, April 26, 2014

  Actual Average (KESN) Record (KESN)
Temperature  
Mean Temperature 63 °F -  
Max Temperature 73 °F 66 °F 92 °F (1960)
Min Temperature 53 °F 43 °F 34 °F (1964)
Degree Days  
Heating Degree Days 2    
Growing Degree Days 13 (Base 50)    
Moisture  
Dew Point 46 °F    
Average Humidity 57    
Maximum Humidity 94    
Minimum Humidity 33    
Precipitation  
Precipitation 0.00 in - - ()
Sea Level Pressure  
Sea Level Pressure 29.80 in    
Wind  
Wind Speed 8 mph (West)    
Max Wind Speed 17 mph    
Max Gust Speed 28 mph    
Visibility 9 miles    
Events      
Averages and records for this station are not official NWS values.
T = Trace of Precipitation, MM = Missing Value Source: NWS Daily Summary

Daily Weather History Graph

Daily Weather History Graph

Search for Another Location

Airport or City:

Trip Planner

Search our weather history database for the weather conditions in past years. The results will help you decide how hot, cold, wet, or windy it might be!

Date:

Astronomy

Apr. 26, 2014 Rise Set
Actual Time 6:13 AM EDT 7:51 PM EDT
Civil Twilight 5:45 AM EDT 8:19 PM EDT
Nautical Twilight 5:11 AM EDT 8:53 PM EDT
Astronomical Twilight 4:35 AM EDT 9:29 PM EDT
Moon 4:33 AM EDT (4/26) 5:18 PM EDT (4/26)
Length of Visible Light 14h 34m
Length of Day
13h 38m
Waning Crescent, 8% of the Moon is Illuminated
Apr 26
Waning Crescent
Apr 29
New
May 6
First Quarter
May 14
Full
May 21
Last Quarter

Hourly Weather History & Observations

Time (EDT) Temp. Dew Point Humidity Pressure Visibility Wind Dir Wind Speed Gust Speed Precip Events Conditions
12:18 AM 59.0 °F 55.4 °F 88% 29.69 in 7.0 mi Calm Calm - N/A   Overcast
12:38 AM 59.0 °F 55.4 °F 88% 29.69 in 7.0 mi West 4.6 mph - N/A   Overcast
12:58 AM 59.0 °F 55.4 °F 88% 29.69 in 7.0 mi West 3.5 mph - N/A   Overcast
1:18 AM 59.0 °F 55.4 °F 88% 29.70 in 10.0 mi WNW 4.6 mph - N/A   Overcast
1:38 AM 55.4 °F 53.6 °F 94% 29.70 in 7.0 mi WNW 8.1 mph - N/A   Overcast
1:58 AM 55.4 °F 53.6 °F 94% 29.71 in 5.0 mi NW 10.4 mph - N/A   Overcast
2:18 AM 53.6 °F 51.8 °F 94% 29.71 in 5.0 mi NW 9.2 mph 17.3 mph N/A   Overcast
2:39 AM 53.6 °F 51.8 °F 94% 29.71 in 7.0 mi WNW 8.1 mph - N/A   Overcast
2:59 AM 53.6 °F 51.8 °F 94% 29.72 in 7.0 mi NW 11.5 mph 20.7 mph N/A   Overcast
3:19 AM 53.6 °F 50.0 °F 88% 29.73 in 7.0 mi WNW 11.5 mph 18.4 mph N/A   Overcast
3:39 AM 53.6 °F 50.0 °F 88% 29.73 in 7.0 mi WNW 12.7 mph - N/A   Mostly Cloudy
3:59 AM 55.4 °F 50.0 °F 82% 29.74 in 10.0 mi WNW 12.7 mph 20.7 mph N/A   Clear
4:19 AM 55.4 °F 46.4 °F 72% 29.75 in 10.0 mi WNW 13.8 mph 23.0 mph N/A   Clear
4:39 AM 55.4 °F 46.4 °F 72% 29.75 in 10.0 mi NW 12.7 mph 23.0 mph N/A   Clear
4:59 AM 55.4 °F 46.4 °F 72% 29.75 in 10.0 mi NW 13.8 mph 19.6 mph N/A   Clear
5:19 AM 55.4 °F 44.6 °F 67% 29.76 in 10.0 mi NW 17.3 mph 24.2 mph N/A   Clear
5:39 AM 53.6 °F 41.0 °F 62% 29.77 in 10.0 mi NW 13.8 mph 19.6 mph N/A   Clear
5:59 AM 53.6 °F 41.0 °F 62% 29.79 in 10.0 mi NW 8.1 mph 16.1 mph N/A   Clear
6:19 AM 53.6 °F 41.0 °F 62% 29.80 in 10.0 mi NW 10.4 mph 17.3 mph N/A   Clear
6:39 AM 53.6 °F 41.0 °F 62% 29.81 in 10.0 mi NW 9.2 mph - N/A   Clear
6:59 AM 53.6 °F 39.2 °F 58% 29.82 in 10.0 mi NW 10.4 mph 17.3 mph N/A   Clear
7:19 AM 55.4 °F 41.0 °F 58% 29.83 in 10.0 mi NW 9.2 mph 17.3 mph N/A   Clear
7:39 AM 55.4 °F 41.0 °F 58% 29.85 in 10.0 mi NW 10.4 mph 17.3 mph N/A   Clear
7:59 AM 55.4 °F 41.0 °F 58% 29.86 in 10.0 mi NW 10.4 mph - N/A   Clear
8:19 AM 55.4 °F 41.0 °F 58% 29.86 in 10.0 mi WNW 8.1 mph 18.4 mph N/A   Clear
8:39 AM 55.4 °F 39.2 °F 54% 29.88 in 10.0 mi WNW 12.7 mph 17.3 mph N/A   Clear
8:59 AM 59.0 °F 41.0 °F 51% 29.89 in 10.0 mi NW 11.5 mph 16.1 mph N/A   Clear
9:19 AM 59.0 °F 41.0 °F 51% 29.89 in 10.0 mi NW 11.5 mph - N/A   Clear
9:39 AM 59.0 °F 41.0 °F 51% 29.90 in 10.0 mi WNW 10.4 mph 18.4 mph N/A   Clear
9:59 AM 59.0 °F 39.2 °F 48% 29.91 in 10.0 mi WNW 10.4 mph 19.6 mph N/A   Clear
10:19 AM 60.8 °F 41.0 °F 48% 29.90 in 10.0 mi NW 8.1 mph 17.3 mph N/A   Clear
10:39 AM 60.8 °F 39.2 °F 45% 29.90 in 10.0 mi NW 9.2 mph 16.1 mph N/A   Clear
10:59 AM 62.6 °F 39.2 °F 42% 29.89 in 10.0 mi NNW 9.2 mph - N/A   Clear
11:19 AM 62.6 °F 39.2 °F 42% 29.88 in 10.0 mi North 8.1 mph - N/A   Clear
12:00 PM 64.4 °F 41.0 °F 42% 29.87 in 10.0 mi WSW 4.6 mph - N/A   Clear
12:20 PM 64.4 °F 41.0 °F 42% 29.86 in 10.0 mi WSW 5.8 mph - N/A   Clear
1:00 PM 69.8 °F 41.0 °F 35% 29.84 in 10.0 mi South 4.6 mph - N/A   Clear
1:20 PM 69.8 °F 42.8 °F 38% 29.84 in 10.0 mi SW 9.2 mph - N/A   Clear
1:40 PM 69.8 °F 44.6 °F 40% 29.82 in 10.0 mi SSW 8.1 mph 16.1 mph N/A   Clear
2:00 PM 71.6 °F 46.4 °F 41% 29.82 in 10.0 mi South 6.9 mph - N/A   Clear
2:20 PM 71.6 °F 46.4 °F 41% 29.82 in 10.0 mi SW 10.4 mph 16.1 mph N/A   Clear
2:40 PM 71.6 °F 44.6 °F 38% 29.81 in 10.0 mi WSW 12.7 mph 19.6 mph N/A   Clear
3:00 PM 71.6 °F 42.8 °F 35% 29.80 in 10.0 mi SSW 11.5 mph 17.3 mph N/A   Clear
3:20 PM 71.6 °F 41.0 °F 33% 29.79 in 10.0 mi SSW 6.9 mph - N/A   Clear
3:40 PM 71.6 °F 42.8 °F 35% 29.77 in 10.0 mi SW 11.5 mph 17.3 mph N/A   Clear
4:00 PM 73.4 °F 44.6 °F 36% 29.76 in 10.0 mi SSW 10.4 mph 16.1 mph N/A   Clear
4:20 PM 73.4 °F 42.8 °F 33% 29.76 in 10.0 mi SSW 10.4 mph 19.6 mph N/A   Clear
5:00 PM 71.6 °F 44.6 °F 38% 29.76 in 10.0 mi South 6.9 mph - N/A   Clear
5:20 PM 71.6 °F 44.6 °F 38% 29.76 in 10.0 mi South 4.6 mph - N/A   Clear
5:40 PM 71.6 °F 46.4 °F 41% 29.76 in 10.0 mi SSW 4.6 mph - N/A   Clear
6:00 PM 71.6 °F 50.0 °F 46% 29.76 in 10.0 mi SW 3.5 mph - N/A   Clear
6:20 PM 69.8 °F 50.0 °F 49% 29.76 in 10.0 mi Calm Calm - N/A   Clear
6:40 PM 69.8 °F 51.8 °F 53% 29.76 in 10.0 mi Calm Calm - N/A   Clear
7:00 PM 71.6 °F 51.8 °F 50% 29.76 in 10.0 mi WSW 3.5 mph - N/A   Clear
7:20 PM 71.6 °F 51.8 °F 50% 29.77 in 10.0 mi WSW 3.5 mph - N/A   Clear
7:40 PM 71.6 °F 44.6 °F 38% 29.77 in 10.0 mi WNW 4.6 mph - N/A   Clear
8:01 PM 71.6 °F 44.6 °F 38% 29.78 in 10.0 mi West 5.8 mph - N/A   Scattered Clouds
8:21 PM 71.6 °F 46.4 °F 41% 29.78 in 10.0 mi WNW 9.2 mph 16.1 mph N/A   Scattered Clouds
8:41 PM 69.8 °F 46.4 °F 43% 29.79 in 10.0 mi West 4.6 mph - N/A   Scattered Clouds
9:01 PM 69.8 °F 46.4 °F 43% 29.82 in 10.0 mi WSW 16.1 mph 26.5 mph N/A   Scattered Clouds
9:21 PM 64.4 °F 48.2 °F 56% 29.86 in 10.0 mi WNW 9.2 mph - N/A   Mostly Cloudy
10:01 PM 62.6 °F 50.0 °F 63% 29.86 in 7.0 mi WNW 9.2 mph 17.3 mph N/A   Mostly Cloudy
10:21 PM 62.6 °F 48.2 °F 59% 29.85 in 10.0 mi WNW 11.5 mph 27.6 mph N/A   Overcast
10:41 PM 62.6 °F 46.4 °F 55% 29.85 in 10.0 mi West 5.8 mph - N/A   Scattered Clouds
11:01 PM 62.6 °F 48.2 °F 59% 29.85 in 10.0 mi WNW 6.9 mph - N/A   Scattered Clouds
11:21 PM 62.6 °F 46.4 °F 55% 29.85 in 10.0 mi NW 12.7 mph 18.4 mph N/A   Scattered Clouds
11:41 PM 62.6 °F 46.4 °F 55% 29.85 in 10.0 mi NW 10.4 mph - N/A   Scattered Clouds